Shelton, WA
on Monday, November 26, 2012

Monday
Previous Day Next Day
Daily Summary
 ActualAverage (KOLM)Record (KOLM)
Temperature
Mean Temperature °F 41°F  
Max Temperature 48°F 47°F 59°F (1950)
Min Temperature 26°F 35°F 14°F (1993)
Degree Days
Heating Degree Days 28 24  
Month to date heating degree days 552  
Since 1 July heating degree days 1346  
Cooling Degree Days 0 0  
Month to date cooling degree days 0  
Year to date cooling degree days 106  
Moisture
Dew Point 31°F   
Average Humidity 91    
Maximum Humidity 100    
Minimum Humidity 52    
Precipitation
Precipitation 0.00 in 0.30 in 2.50 in (1949)
Month to date precipitation 7.43  
Year to date precipitation 41.34  
Wind
Wind Speed 1 mph   
Max Wind Speed 7 mph   
Max Gust Speed mph   
Visibility 8 miles   
Events     

Key: T is trace of precipitation, MM is missing value
Source: NWS Daily Summary
Time(PST)TemperatureDew PointHumidity Pressure Visibility Wind DirectionWind SpeedGust SpeedPrecipitationEvents Conditions
12:09 AM 28.4°F 28.4°F 100% 30.19 in 3.0 miles Calm Calm - N/A   Partly Cloudy
12:53 AM 32.0°F 32.0°F 100% 30.20 in 10.0 miles NNE 3.5 mph - N/A   Clear
1:53 AM 30.0°F 30.0°F 100% 30.18 in 10.0 miles Calm Calm - N/A   Partly Cloudy
2:53 AM 28.9°F 28.9°F 100% 30.15 in 10.0 miles Calm Calm - N/A   Clear
3:44 AM 28.4°F 26.6°F 93% 30.14 in 6.0 miles Calm Calm - N/A   Partly Cloudy
3:53 AM 27.0°F 26.1°F 96% 30.15 in 6.0 miles Calm Calm - N/A   Partly Cloudy
4:07 AM 28.4°F 28.4°F 100% 30.13 in 5.0 miles Calm Calm - N/A   Mostly Cloudy
4:31 AM 28.4°F 26.6°F 93% 30.12 in 8.0 miles Calm Calm - N/A   Scattered Clouds
4:53 AM 28.9°F 28.0°F 96% 30.14 in 2.5 miles Calm Calm - N/A   Clear
4:57 AM 28.4°F 28.4°F 100% 30.13 in 3.0 miles Calm Calm - N/A   Partly Cloudy
5:53 AM 28.0°F 28.0°F 100% 30.15 in 7.0 miles Calm Calm - N/A   Clear
6:04 AM 26.6°F 26.6°F 100% 30.12 in 2.5 miles Calm Calm - N/A   Clear
6:11 AM 28.4°F 28.4°F 100% 30.13 in 10.0 miles Calm Calm - N/A   Clear
6:53 AM 30.0°F 30.0°F 100% 30.13 in 10.0 miles Calm Calm - N/A   Clear
7:53 AM 28.9°F 28.0°F 96% 30.13 in 10.0 miles Calm Calm - N/A   Clear
8:53 AM 30.9°F 30.0°F 96% 30.12 in 10.0 miles Calm Calm - N/A   Clear
9:53 AM 37.0°F 37.0°F 100% 30.12 in 10.0 miles Calm Calm - N/A   Clear
10:53 AM 42.1°F 37.0°F 82% 30.11 in 10.0 miles ESE 3.5 mph - N/A   Clear
11:53 AM 46.0°F 37.0°F 71% 30.09 in 10.0 miles Calm Calm - N/A   Clear
12:53 PM 48.9°F 32.0°F 52% 30.06 in 10.0 miles NE 5.8 mph - N/A   Clear
1:53 PM 48.0°F 34.0°F 58% 30.05 in 10.0 miles North 6.9 mph - N/A   Clear
2:53 PM 48.9°F 35.1°F 59% 30.04 in 10.0 miles North 4.6 mph - N/A   Clear
3:53 PM 45.0°F 37.0°F 74% 30.04 in 10.0 miles Calm Calm - N/A   Clear
4:53 PM 39.9°F 36.0°F 86% 30.05 in 10.0 miles North 5.8 mph - N/A   Clear
5:53 PM 39.0°F 35.1°F 86% 30.05 in 10.0 miles Calm Calm - N/A   Clear
6:53 PM 33.1°F 32.0°F 96% 30.05 in 10.0 miles Calm Calm - N/A   Clear
7:53 PM 30.9°F 30.0°F 96% 30.05 in 10.0 miles Calm Calm - N/A   Clear
8:53 PM 30.9°F 30.0°F 96% 30.06 in 10.0 miles Calm Calm - N/A   Clear
9:53 PM 30.0°F 28.9°F 96% 30.07 in 10.0 miles SW 3.5 mph - N/A   Clear
10:53 PM 30.9°F 30.0°F 96% 30.06 in 10.0 miles Calm Calm - N/A   Clear
11:51 PM 30.2°F 30.2°F 100% 30.07 in 10.0 miles SSW 3.5 mph - N/A   Partly Cloudy
11:53 PM 30.0°F 30.0°F 100% 30.09 in 10.0 miles Calm Calm - N/A   Partly Cloudy
Moon Phase
Nov. 26 Nov. 28 Dec. 06 Dec. 13 Dec. 20
Sunrise:07:32 AM (PST) Moon Rise:03:25 PM (PST)11/26
Sunset:04:26 PM (PST) Moon Set:05:44 AM (PST)11/26

Copyright © 2014 The Weather Underground, Inc.